ROMMA est une association bénévole à but non lucratif. Votre soutien est indispensable : ADHERER à ROMMA ou FAIRE un DON

Granges-lès-Beaumont - (26, Drôme)

Drôme des Collines (155 m)   Longitude: 04°58'E   Latitude: 45°03'N Station partenaire n°123
 

Détail journalier du     <<     >>

Température Precipitation Humidité Pression Vent Dir Rafale Dir. rafale Ensol.
Heure (°C) (mm) (%) (hPa) (km/h) (km/h) (min)
01:00 2.308810271---8NNO0
02:00 1.108810282NNO6NNO0
03:00 0.808910281---5NNO0
04:00 0.2089102800---0
05:00 0.308910281---10NNO0
06:00 -0.708910281NNO5NNO0
07:00 -0.609010281---6NNO0
08:00 -1.108910291NNO6NNO0
09:00 0.9090102903NNO20
10:00 4.208910301NNO5NNO20
11:00 7.708210292NE6NE10
12:00 10.906710293ENE6NE40
13:00 13.606010292ENE10SSO60
14:00 15.605610285ESE11S60
15:00 17.205010284E11E60
16:00 17.404710288NNO19NNO60
17:00 16.305010288NNO16NNE60
18:00 14.405410286NNO11NO50
19:00 11.605910284NNO10NNO0
20:00 8.906410293NO10NO0
21:00 6.507210291NO5NO0
22:00 5.507710302NO6NO0
23:00 4.608010302NO6NO0
minuit 3.608210302NO6NO0

Graphique du 21-02-2019

 

Serveur OMMA